Regional Weather Roundup
Issued by NWS

Home | Current Version | Previous Version | Graphics & Text | Print | Product List | Glossary Off
Versions: 1 2 3 4 5 6 7 8 9 10 11 12 13 14 15 16 17 18 19 20 21 22 23 24 25 26 27 28 29 30 31 32 33 34 35 36 37 38 39 40 41 42 43 44 45 46 47 48 49 50

000
ASUS43 KTOP 072308
RWRKS

WEATHER ROUNDUP FOR KANSAS
NATIONAL WEATHER SERVICE GOODLAND KS
500 PM CST WED DEC 07 2016

NOTE:  "FAIR" INDICATES FEW OR NO CLOUDS BELOW 12,000 FEET WITH NO
SIGNIFICANT WEATHER AND/OR OBSTRUCTIONS TO VISIBILITY.

KSZ001>006-013>018-027>032-041>047-080000-
NORTHWEST KANSAS

CITY           SKY/WX    TMP DP  RH WIND       PRES   REMARKS
GOODLAND       CLOUDY    15   7  70 N14       30.33R WCI   0
HAYS           CLOUDY    22  15  75 N14       30.40R WCI   9
HILL CITY      MOCLDY    20  12  71 NW8       30.41R
RUSSELL        CLOUDY    22  15  75 N12       30.38R WCI  10
$$

KSZ061>065-074>080-084>089-080000-
SOUTHWEST KANSAS

CITY           SKY/WX    TMP DP  RH WIND       PRES   REMARKS
DODGE CITY     CLOUDY    22  17  81 N15       30.35R WCI   9
ELKHART          N/A     20   7  57 N12         N/A  WCI   8
GARDEN CITY    CLOUDY    20  15  81 N13       30.34R WCI   7
GREAT BEND     CLOUDY    23  18  81 N12       30.39R WCI  12
LIBERAL        CLOUDY    25  12  58 N14       30.31R WCI  13
PRATT          CLOUDY    23  16  74 NE13G18   30.37R WCI  11
$$

KSZ066>073-081>083-090>101-080000-
SOUTHEAST KANSAS

CITY           SKY/WX    TMP DP  RH WIND       PRES   REMARKS
CHANUTE        LGT SNOW  28  24  85 N15       30.36R FOG     WCI  16
COFFEYVILLE    CLOUDY    31  25  78 N14G23    30.35R WCI  21
HUTCHINSON     CLOUDY    25  18  74 N13       30.38R WCI  14
MEDICINE LODGE   N/A     27  19  72 N15       30.35R WCI  15
NEWTON         CLOUDY    24  20  84 N12       30.37R WCI  13
PARSONS        FLURRIES  30  24  78 N14       30.36R WCI  19
WICHITA INTL   CLOUDY    28  21  75 N17       30.36R WCI  16
WICHITA JABRA  CLOUDY    26  21  81 N13       30.36R WCI  15
WICHITA MCCONL CLOUDY    28  21  76 N18       30.36R WCI  15
WINFIELD       CLOUDY    31  21  66 NE12G23   30.35R WCI  22
$$

KSZ007>012-019>026-033>040-048>060-102>105-080000-
NORTHEAST KANSAS

CITY           SKY/WX    TMP DP  RH WIND       PRES   REMARKS
CONCORDIA      CLEAR     24  10  55 NW12      30.39R WCI  13
EMPORIA        CLOUDY    26  21  81 N7        30.37R
LAWRENCE       CLOUDY    26  18  71 NW12      30.37R WCI  16
MANHATTAN      PTCLDY    27  13  55 N6        30.39R
MARYSVILLE     CLEAR     25   9  50 N8        30.38R
OLATHE IND     MOCLDY    24  19  81 NW9       30.35R
OLATHE EXE     CLOUDY    24  18  77 NW6       30.34R
SALINA         CLEAR     25  18  74 NW7       30.41R
TOPEKA BILLARD CLOUDY    26  17  68 NW9       30.38R
TOPEKA FORBES  CLOUDY    27  17  66 NW13      30.37R WCI  16
$$




USA.gov is the U.S. government's official web portal to all federal, state and local government web resources and services.